| time (UTC) | temp C | wind direction | speed KPH | gust KPH | rain 1hr cm | rain 24hr cm | rain mn cm | humidity % | barometer mb |
| 20260504045823 | 15 | 360 | 16.1 | 24.1 | 0.00 | 0.03 | 0.03 | 63 | 1002.1 |
| 20260504045355 | 15 | 360 | 12.9 | 24.1 | 0.00 | 0.03 | 0.03 | 63 | 1002.2 |
| 20260504044824 | 15 | 360 | 16.1 | 24.1 | 0.00 | 0.03 | 0.03 | 62 | 1002.2 |
| 20260504044402 | 15 | 360 | 12.9 | 20.9 | 0.00 | 0.03 | 0.03 | 63 | 1002.2 |
| 20260504043828 | 15 | 360 | 9.7 | 19.3 | 0.00 | 0.03 | 0.03 | 63 | 1002.2 |
| 20260504043336 | 15 | 360 | 12.9 | 22.5 | 0.00 | 0.03 | 0.03 | 62 | 1002.1 |
| 20260504042826 | 15 | 360 | 14.5 | 22.5 | 0.00 | 0.03 | 0.03 | 63 | 1002.2 |
| 20260504042335 | 15 | 360 | 12.9 | 20.9 | 0.00 | 0.03 | 0.03 | 62 | 1002.3 |
| 20260504041823 | 15 | 360 | 11.3 | 19.3 | 0.00 | 0.03 | 0.03 | 62 | 1002.1 |
| 20260504041335 | 15 | 360 | 11.3 | 19.3 | 0.00 | 0.03 | 0.03 | 62 | 1002.1 |
| 20260504040824 | 15 | 360 | 9.7 | 19.3 | 0.00 | 0.03 | 0.03 | 62 | 1002.1 |
| 20260504040334 | 15 | 360 | 9.7 | 14.5 | 0.00 | 0.03 | 0.03 | 62 | 1002.2 |
| 20260504035824 | 15 | 360 | 11.3 | 14.5 | 0.00 | 0.03 | 0.03 | 62 | 1002.2 |
| 20260504035335 | 15 | 360 | 8.0 | 14.5 | 0.00 | 0.03 | 0.03 | 62 | 1002.2 |
| 20260504034824 | 15 | 184 | 8.0 | 12.9 | 0.00 | 0.03 | 0.03 | 61 | 1002.3 |
| 20260504034335 | 15 | 360 | 9.7 | 14.5 | 0.00 | 0.03 | 0.03 | 60 | 1002.3 |
| 20260504033823 | 15 | 360 | 9.7 | 14.5 | 0.00 | 0.03 | 0.03 | 61 | 1002.3 |
| 20260504033332 | 15 | 360 | 9.7 | 16.1 | 0.00 | 0.03 | 0.03 | 60 | 1002.3 |
| 20260504032842 | 15 | 360 | 8.0 | 16.1 | 0.00 | 0.03 | 0.03 | 60 | 1002.5 |
| 20260504032330 | 16 | 360 | 9.7 | 14.5 | 0.00 | 0.03 | 0.03 | 60 | 1002.4 |
| 20260504031820 | 16 | 360 | 11.3 | 14.5 | 0.00 | 0.03 | 0.03 | 60 | 1002.4 |
| 20260504031328 | 16 | 360 | 9.7 | 14.5 | 0.00 | 0.03 | 0.03 | 60 | 1002.5 |
| 20260504030837 | 16 | 360 | 9.7 | 14.5 | 0.00 | 0.03 | 0.03 | 59 | 1002.4 |
| 20260504030324 | 16 | 360 | 8.0 | 14.5 | 0.00 | 0.03 | 0.03 | 59 | 1002.5 |
| 20260504025835 | 16 | 360 | 9.7 | 14.5 | 0.00 | 0.03 | 0.03 | 59 | 1002.5 |
| 20260504025323 | 16 | 360 | 8.0 | 14.5 | 0.00 | 0.03 | 0.03 | 58 | 1002.6 |
| 20260504024833 | 16 | 360 | 9.7 | 17.7 | 0.00 | 0.03 | 0.03 | 58 | 1002.6 |
| 20260504024344 | 16 | 360 | 9.7 | 17.7 | 0.00 | 0.03 | 0.03 | 57 | 1002.5 |
| 20260504023850 | 16 | 360 | 9.7 | 14.5 | 0.00 | 0.03 | 0.03 | 57 | 1002.5 |
| 20260504023339 | 16 | 360 | 9.7 | 12.9 | 0.00 | 0.03 | 0.03 | 57 | 1002.5 |
| 20260504022828 | 16 | 360 | 8.0 | 12.9 | 0.00 | 0.03 | 0.03 | 57 | 1002.6 |
| 20260504022335 | 16 | 360 | 8.0 | 11.3 | 0.00 | 0.03 | 0.03 | 57 | 1002.5 |
| 20260504021822 | 16 | 189 | 6.4 | 11.3 | 0.00 | 0.03 | 0.03 | 57 | 1002.4 |
| 20260504021334 | 16 | 360 | 8.0 | 11.3 | 0.00 | 0.03 | 0.03 | 57 | 1002.4 |
| 20260504020844 | 16 | 360 | 6.4 | 9.7 | 0.00 | 0.03 | 0.03 | 57 | 1002.4 |
| 20260504020352 | 16 | 192 | 6.4 | 9.7 | 0.00 | 0.03 | 0.03 | 56 | 1002.3 |
| 20260504015348 | 16 | 360 | 8.0 | 11.3 | 0.00 | 0.03 | 0.03 | 55 | 1002.3 |
| 20260504014836 | 16 | 360 | 8.0 | 11.3 | 0.00 | 0.03 | 0.03 | 55 | 1002.3 |
| 20260504014327 | 16 | 360 | 6.4 | 11.3 | 0.00 | 0.03 | 0.03 | 55 | 1002.2 |
| 20260504013834 | 16 | 360 | 6.4 | 11.3 | 0.00 | 0.03 | 0.03 | 54 | 1002.2 |
| 20260504013339 | 17 | 360 | 8.0 | 9.7 | 0.00 | 0.03 | 0.03 | 54 | 1002.1 |
| 20260504012849 | 17 | 360 | 6.4 | 9.7 | 0.00 | 0.03 | 0.03 | 53 | 1002.1 |
| 20260504012336 | 17 | 360 | 6.4 | 9.7 | 0.00 | 0.03 | 0.03 | 53 | 1002.1 |
| 20260504011826 | 17 | 360 | 6.4 | 9.7 | 0.00 | 0.03 | 0.03 | 53 | 1002.1 |
| 20260504011337 | 17 | 360 | 4.8 | 11.3 | 0.00 | 0.03 | 0.03 | 53 | 1002.1 |
| 20260504010826 | 17 | 360 | 6.4 | 11.3 | 0.00 | 0.03 | 0.03 | 52 | 1001.9 |
| 20260504010336 | 17 | 360 | 8.0 | 11.3 | 0.00 | 0.03 | 0.03 | 52 | 1001.9 |
| 20260504005846 | 17 | 360 | 8.0 | 12.9 | 0.00 | 0.03 | 0.03 | 51 | 1001.8 |
| 20260504005404 | 18 | 360 | 8.0 | 16.1 | 0.00 | 0.03 | 0.03 | 51 | 1001.8 |
| 20260504004852 | 18 | 360 | 8.0 | 16.1 | 0.00 | 0.03 | 0.03 | 50 | 1001.8 |
| 20260504004339 | 18 | 360 | 9.7 | 14.5 | 0.00 | 0.03 | 0.03 | 50 | 1001.7 |
| 20260504003827 | 18 | 360 | 11.3 | 14.5 | 0.00 | 0.03 | 0.03 | 49 | 1001.8 |
| 20260504003331 | 18 | 360 | 9.7 | 17.7 | 0.00 | 0.03 | 0.03 | 49 | 1001.8 |
| 20260504002840 | 18 | 360 | 11.3 | 17.7 | 0.00 | 0.03 | 0.03 | 48 | 1001.9 |
| 20260504002328 | 18 | 360 | 8.0 | 14.5 | 0.00 | 0.03 | 0.03 | 48 | 1001.9 |
| 20260504001836 | 18 | 360 | 11.3 | 22.5 | 0.00 | 0.03 | 0.03 | 47 | 1001.9 |
| 20260504001327 | 19 | 360 | 11.3 | 22.5 | 0.00 | 0.03 | 0.03 | 47 | 1001.9 |
| 20260504000837 | 19 | 360 | 12.9 | 17.7 | 0.00 | 0.03 | 0.03 | 47 | 1001.9 |
| 20260504000346 | 19 | 360 | 11.3 | 16.1 | 0.00 | 0.03 | 0.03 | 47 | 1001.9 |
| 20260503235857 | 19 | 360 | 11.3 | 20.9 | 0.00 | 0.03 | 0.03 | 47 | 1002.0 |
| 20260503235324 | 19 | 360 | 14.5 | 20.9 | 0.00 | 0.03 | 0.03 | 46 | 1002.1 |
| 20260503234833 | 19 | 360 | 11.3 | 20.9 | 0.00 | 0.03 | 0.03 | 46 | 1002.0 |
| 20260503234324 | 19 | 360 | 14.5 | 24.1 | 0.00 | 0.03 | 0.03 | 46 | 1002.0 |
| 20260503233830 | 19 | 360 | 14.5 | 27.4 | 0.00 | 0.03 | 0.03 | 44 | 1002.0 |
| 20260503233340 | 19 | 360 | 14.5 | 30.6 | 0.00 | 0.03 | 0.03 | 44 | 1002.0 |
| 20260503232830 | 20 | 360 | 19.3 | 30.6 | 0.00 | 0.03 | 0.03 | 44 | 1002.1 |
| 20260503232340 | 20 | 360 | 16.1 | 30.6 | 0.00 | 0.03 | 0.03 | 44 | 1002.0 |
| 20260503231828 | 20 | 360 | 16.1 | 40.2 | 0.00 | 0.03 | 0.03 | 43 | 1002.1 |
| 20260503231339 | 20 | 360 | 30.6 | 45.1 | 0.00 | 0.03 | 0.03 | 43 | 1002.2 |
| 20260503230846 | 20 | 360 | 25.7 | 45.1 | 0.00 | 0.03 | 0.03 | 42 | 1002.2 |
| 20260503230354 | 20 | 360 | 29.0 | 43.5 | 0.00 | 0.03 | 0.03 | 42 | 1002.2 |
| 20260503225824 | 20 | 360 | 16.1 | 30.6 | 0.00 | 0.03 | 0.03 | 43 | 1002.2 |
| 20260503225327 | 20 | 360 | 16.1 | 29.0 | 0.00 | 0.03 | 0.03 | 45 | 1002.3 |
| 20260503224903 | 20 | 360 | 16.1 | 30.6 | 0.00 | 0.03 | 0.03 | 44 | 1002.2 |
| 20260503224352 | 20 | 360 | 19.3 | 35.4 | 0.00 | 0.03 | 0.03 | 43 | 1002.3 |
| 20260503223838 | 20 | 360 | 22.5 | 35.4 | 0.00 | 0.03 | 0.03 | 43 | 1002.2 |
| 20260503223327 | 20 | 360 | 22.5 | 32.2 | 0.00 | 0.03 | 0.03 | 43 | 1002.2 |
| 20260503222836 | 20 | 360 | 20.9 | 32.2 | 0.00 | 0.03 | 0.03 | 44 | 1002.2 |
| 20260503222344 | 19 | 360 | 22.5 | 40.2 | 0.00 | 0.03 | 0.03 | 43 | 1002.2 |
| 20260503221833 | 19 | 360 | 30.6 | 40.2 | 0.00 | 0.03 | 0.03 | 43 | 1002.2 |
| 20260503221342 | 19 | 360 | 22.5 | 40.2 | 0.00 | 0.03 | 0.03 | 44 | 1002.3 |
| 20260503220830 | 19 | 360 | 27.4 | 40.2 | 0.00 | 0.03 | 0.03 | 44 | 1002.4 |
| 20260503220338 | 19 | 360 | 24.1 | 43.5 | 0.00 | 0.03 | 0.03 | 44 | 1002.4 |
| 20260503215827 | 18 | 360 | 32.2 | 45.1 | 0.00 | 0.03 | 0.03 | 44 | 1002.5 |
| 20260503215336 | 19 | 360 | 29.0 | 45.1 | 0.00 | 0.03 | 0.03 | 43 | 1002.8 |
| 20260503214827 | 19 | 360 | 29.0 | 38.6 | 0.00 | 0.03 | 0.03 | 43 | 1002.6 |
| 20260503214338 | 19 | 360 | 24.1 | 37.0 | 0.00 | 0.03 | 0.03 | 43 | 1002.6 |
| 20260503213825 | 19 | 360 | 19.3 | 41.8 | 0.00 | 0.03 | 0.03 | 44 | 1002.8 |
| 20260503213330 | 19 | 360 | 19.3 | 41.8 | 0.00 | 0.03 | 0.03 | 44 | 1002.9 |
| 20260503212838 | 18 | 360 | 24.1 | 41.8 | 0.00 | 0.03 | 0.03 | 44 | 1002.9 |
| 20260503212326 | 18 | 360 | 20.9 | 53.1 | 0.00 | 0.03 | 0.03 | 44 | 1002.9 |
| 20260503211836 | 18 | 360 | 30.6 | 53.1 | 0.00 | 0.03 | 0.03 | 44 | 1003.0 |
| 20260503211328 | 18 | 360 | 35.4 | 46.7 | 0.00 | 0.03 | 0.03 | 43 | 1003.1 |
| 20260503210901 | 18 | 360 | 25.7 | 57.9 | 0.00 | 0.03 | 0.03 | 45 | 1003.1 |
| 20260503210330 | 18 | 360 | 38.6 | 57.9 | 0.00 | 0.03 | 0.03 | 44 | 1003.2 |
| 20260503205839 | 17 | 360 | 29.0 | 59.5 | 0.00 | 0.03 | 0.03 | 45 | 1003.4 |
| 20260503205327 | 18 | 360 | 40.2 | 59.5 | 0.00 | 0.03 | 0.03 | 43 | 1003.4 |
| 20260503204835 | 18 | 360 | 32.2 | 48.3 | 0.00 | 0.03 | 0.03 | 44 | 1003.4 |
| 20260503204324 | 18 | 360 | 32.2 | 57.9 | 0.00 | 0.03 | 0.03 | 44 | 1003.7 |
| 20260503203859 | 18 | 360 | 38.6 | 57.9 | 0.00 | 0.03 | 0.03 | 44 | 1003.8 |
| 20260503203324 | 18 | 360 | 27.4 | 46.7 | 0.00 | 0.03 | 0.03 | 45 | 1003.8 |
| 20260503202834 | 18 | 360 | 24.1 | 40.2 | 0.00 | 0.03 | 0.03 | 49 | 1003.8 |
| 20260503202322 | 17 | 360 | 24.1 | 41.8 | 0.00 | 0.03 | 0.03 | 49 | 1004.0 |
| 20260503201831 | 17 | 360 | 32.2 | 43.5 | 0.00 | 0.03 | 0.03 | 49 | 1004.1 |
| 20260503201341 | 17 | 360 | 30.6 | 48.3 | 0.00 | 0.03 | 0.03 | 51 | 1004.3 |
| 20260503200848 | 16 | 360 | 27.4 | 48.3 | 0.00 | 0.03 | 0.03 | 51 | 1004.6 |
| 20260503200333 | 16 | 360 | 32.2 | 48.3 | 0.00 | 0.03 | 0.03 | 53 | 1004.7 |
| 20260503195822 | 16 | 360 | 24.1 | 45.1 | 0.00 | 0.03 | 0.03 | 52 | 1005.1 |
| 20260503195332 | 16 | 360 | 25.7 | 49.9 | 0.00 | 0.03 | 0.03 | 52 | 1005.2 |
| 20260503194839 | 17 | 360 | 32.2 | 49.9 | 0.00 | 0.03 | 0.03 | 49 | 1005.2 |
| 20260503194328 | 17 | 360 | 25.7 | 45.1 | 0.00 | 0.03 | 0.03 | 50 | 1005.3 |
| 20260503193836 | 16 | 360 | 22.5 | 45.1 | 0.00 | 0.03 | 0.03 | 50 | 1005.4 |
| 20260503193344 | 16 | 360 | 22.5 | 41.8 | 0.00 | 0.03 | 0.03 | 51 | 1005.3 |
| 20260503192834 | 16 | 360 | 27.4 | 45.1 | 0.00 | 0.03 | 0.03 | 49 | 1005.4 |
| 20260503192322 | 16 | 360 | 29.0 | 45.1 | 0.00 | 0.03 | 0.03 | 50 | 1005.3 |
| 20260503191830 | 16 | 360 | 22.5 | 46.7 | 0.00 | 0.03 | 0.03 | 49 | 1005.3 |
| 20260503191339 | 16 | 360 | 29.0 | 46.7 | 0.00 | 0.03 | 0.03 | 48 | 1005.2 |
| 20260503190825 | 16 | 360 | 24.1 | 43.5 | 0.00 | 0.03 | 0.03 | 49 | 1005.2 |
| 20260503190335 | 16 | 360 | 29.0 | 43.5 | 0.00 | 0.03 | 0.03 | 48 | 1005.3 |
| 20260503185845 | 16 | 360 | 32.2 | 43.5 | 0.00 | 0.03 | 0.03 | 48 | 1005.4 |
| 20260503185351 | 15 | 360 | 25.7 | 48.3 | 0.00 | 0.03 | 0.03 | 49 | 1005.2 |
| 20260503184838 | 15 | 360 | 24.1 | 48.3 | 0.00 | 0.03 | 0.03 | 49 | 1005.5 |
| 20260503184327 | 15 | 360 | 25.7 | 43.5 | 0.00 | 0.03 | 0.03 | 50 | 1005.5 |
| 20260503183837 | 15 | 360 | 30.6 | 43.5 | 0.00 | 0.03 | 0.03 | 50 | 1005.4 |
| 20260503183323 | 15 | 360 | 22.5 | 40.2 | 0.00 | 0.03 | 0.03 | 52 | 1005.5 |
| 20260503182831 | 15 | 360 | 22.5 | 38.6 | 0.00 | 0.03 | 0.03 | 53 | 1005.8 |
| 20260503182321 | 15 | 360 | 25.7 | 45.1 | 0.00 | 0.03 | 0.03 | 53 | 1005.8 |
| 20260503181830 | 15 | 360 | 22.5 | 46.7 | 0.00 | 0.03 | 0.03 | 53 | 1005.9 |
| 20260503181341 | 15 | 360 | 25.7 | 46.7 | 0.00 | 0.03 | 0.03 | 52 | 1005.9 |
| 20260503180828 | 15 | 360 | 32.2 | 46.7 | 0.03 | 0.03 | 0.03 | 52 | 1006.0 |
| 20260503180336 | 14 | 360 | 20.9 | 46.7 | 0.03 | 0.03 | 0.03 | 54 | 1006.1 |
| 20260503175825 | 14 | 360 | 29.0 | 45.1 | 0.03 | 0.03 | 0.03 | 53 | 1006.1 |
| 20260503175335 | 14 | 360 | 27.4 | 48.3 | 0.03 | 0.03 | 0.03 | 56 | 1006.3 |
| 20260503174846 | 14 | 360 | 32.2 | 48.3 | 0.03 | 0.03 | 0.03 | 56 | 1006.6 |
| 20260503174356 | 14 | 360 | 29.0 | 46.7 | 0.03 | 0.03 | 0.03 | 55 | 1006.7 |
| 20260503173824 | 14 | 360 | 27.4 | 41.8 | 0.03 | 0.03 | 0.03 | 57 | 1006.7 |
| 20260503173358 | 13 | 360 | 33.8 | 46.7 | 0.03 | 0.03 | 0.03 | 59 | 1006.9 |
| 20260503172847 | 13 | 360 | 16.1 | 46.7 | 0.03 | 0.03 | 0.03 | 62 | 1007.2 |
| 20260503172356 | 13 | 360 | 24.1 | 38.6 | 0.03 | 0.03 | 0.03 | 62 | 1007.3 |
| 20260503171824 | 13 | 360 | 27.4 | 49.9 | 0.03 | 0.03 | 0.03 | 64 | 1007.5 |
| 20260503171358 | 12 | 360 | 27.4 | 49.9 | 0.03 | 0.03 | 0.03 | 65 | 1007.7 |
| 20260503170824 | 12 | 360 | 25.7 | 41.8 | 0.00 | 0.00 | 0.00 | 64 | 1007.8 |
| 20260503170334 | 12 | 360 | 22.5 | 38.6 | 0.00 | 0.00 | 0.00 | 65 | 1008.0 |
| 20260503150826 | 12 | 360 | 35.4 | 45.1 | 0.00 | 0.00 | 0.00 | 58 | 1009.2 |
| 20260503150336 | 12 | 360 | 27.4 | 43.5 | 0.00 | 0.00 | 0.00 | 59 | 1009.3 |
| 20260503131336 | 11 | 360 | 24.1 | 43.5 | 0.00 | 0.00 | 0.00 | 57 | 1010.0 |
| 20260503130843 | 11 | 360 | 29.0 | 41.8 | 0.00 | 0.00 | 0.00 | 57 | 1010.2 |
| 20260503130351 | 11 | 360 | 22.5 | 41.8 | 0.00 | 0.00 | 0.00 | 57 | 1010.4 |
| 20260503110326 | 9 | 360 | 24.1 | 33.8 | 0.00 | 0.00 | 0.00 | 55 | 1009.8 |
| 20260503090329 | 8 | 360 | 16.1 | 22.5 | 0.00 | 0.00 | 0.00 | 54 | 1010.7 |
| 20260503081340 | 8 | 360 | 14.5 | 22.5 | 0.00 | 0.00 | 0.00 | 54 | 1010.9 |
| 20260503080828 | 8 | 360 | 14.5 | 24.1 | 0.00 | 0.00 | 0.00 | 54 | 1010.9 |
| 20260503080338 | 8 | 360 | 16.1 | 24.1 | 0.00 | 0.00 | 0.00 | 54 | 1010.9 |
| 20260503072839 | 8 | 360 | 14.5 | 19.3 | 0.00 | 0.00 | 0.00 | 56 | 1010.7 |
| 20260503072349 | 8 | 360 | 14.5 | 20.9 | 0.00 | 0.00 | 0.00 | 55 | 1010.8 |
| 20260503071838 | 8 | 360 | 12.9 | 20.9 | 0.00 | 0.00 | 0.00 | 56 | 1010.9 |
| 20260503071329 | 8 | 360 | 12.9 | 22.5 | 0.00 | 0.00 | 0.00 | 56 | 1010.9 |
| 20260503070836 | 7 | 360 | 16.1 | 22.5 | 0.00 | 0.00 | 0.00 | 56 | 1011.0 |
| 20260503070346 | 7 | 360 | 12.9 | 17.7 | 0.00 | 0.00 | 0.00 | 57 | 1011.0 |
| 20260503060334 | 8 | 360 | 8.0 | 17.7 | 0.00 | 0.00 | 0.00 | 56 | 1011.5 |
| 20260503054833 | 8 | 360 | 11.3 | 16.1 | 0.00 | 0.00 | 0.00 | 56 | 1011.7 |
| 20260503054324 | 8 | 360 | 9.7 | 16.1 | 0.00 | 0.00 | 0.00 | 56 | 1011.7 |
| 20260503053832 | 8 | 360 | 11.3 | 16.1 | 0.00 | 0.00 | 0.00 | 56 | 1011.7 |
| 20260503053322 | 7 | 360 | 9.7 | 14.5 | 0.00 | 0.00 | 0.00 | 57 | 1011.7 |
| 20260503052831 | 7 | 360 | 9.7 | 14.5 | 0.00 | 0.00 | 0.00 | 57 | 1011.8 |
| 20260503052336 | 7 | 360 | 9.7 | 14.5 | 0.00 | 0.00 | 0.00 | 57 | 1011.8 |
| 20260503051825 | 7 | 360 | 9.7 | 12.9 | 0.00 | 0.00 | 0.00 | 57 | 1011.9 |
| 20260503051335 | 7 | 360 | 9.7 | 12.9 | 0.00 | 0.00 | 0.00 | 57 | 1011.8 |
| 20260503050823 | 7 | 360 | 8.0 | 16.1 | 0.00 | 0.00 | 0.00 | 57 | 1011.9 |
| 20260503050332 | 8 | 360 | 9.7 | 16.1 | 0.00 | 0.00 | 0.00 | 57 | 1011.9 |